Meteor 2-2 Rocket - Orbit

View from above orbital plane
View from above orbital plane
View from above satellite
View from above satellite

Ground track
Ground track

The orbit data is extracted from the following two-line orbital elements,

1 09662U 77002B   13139.34123803  .00000027  00000-0  97745-5 0   469
2 09662 081.2777 056.7893 0051108 268.0904 241.5099 14.00747498858048
Epoch (UTC): 19 May 2013 08:11:22
Eccentricity: 0.0051108
inclination: 81.2777°
perigee height: 854 km
apogee height: 928 km
right ascension of ascending node: 56.7893°
argument of perigee: 268.0904°
revolutions per day: 14.00747498
mean anomaly at epoch: 241.5099°
orbit number at epoch: 85804

The dashed part of the orbit path shows where the satellite is in the earth's shadow,  

Developed and maintained by Chris Peat, Heavens-Above GmbH. Please read the updated FAQ before sending e-mail. Imprint. DLR